Location: Boullarre
(49.1305°N, 3.0047°E)
Time: 20:37:47
(UTC+00:00)

ISS - Pass Details

Date: 21 September 2024
Orbit: 411 x 423 km, 51.6° (Epoch: 14 October)

Event Time Altitude Azimuth Distance (km) Brightness Sun altitude
Rises 19:24:23 0° 283° (WNW) 2,369 1.8 -16.4°
Reaches altitude 10° 19:26:30 10° 287° (WNW) 1,507 0.4 -16.7°
Maximum altitude 19:29:51 58° 8° (N) 499 -3.4 -17.2°
Enters shadow 19:30:45 41° 65° (ENE) 631 -3.2 -17.4°
